Retour au catalogue

GAOFEN 1-04

ActifScienceSSO
NORAD 43262·PAYLOAD·🇨🇳 China

Lancé Mar 31, 2018 depuis Taiyuan Satellite Launch Center

Loading…

Prochains Passages (prochaines 24 heures)

TLE

FraisSource: Space-Track

Époque: Sep 14, 2026, 21:54 UTC

1 43262U 18031D   26257.91291416  .00000136  00000-0  26972-4 0  9995
2 43262  98.0443 320.1976 0002222 104.2246 255.9211 14.76475684455924

Suivez GAOFEN 1-04 en temps réel avec AllMySat

Download on the App Store